This is the latest recevied weather packets stored in our database for station/object KD8TSA. If no packets are shown the sender has not sent any weather packets the latest 10 day(s).
| Time | Temp. | Humidity | Pressure | Rain* | Wind** | Luminosity | Snow |
|---|---|---|---|---|---|---|---|
| 1778183174 | 14.44° C | 50% | 1012.9 hPa | 0 mm | - | 567 W/m² | - |
| 1778182870 | 15° C | 51% | 1012.9 hPa | 0 mm | - | 575 W/m² | - |
| 1778182567 | 15° C | 55% | 1012.7 hPa | 0 mm | - | 587 W/m² | - |
| 1778182264 | 15° C | 50% | 1013.1 hPa | 0 mm | - | 641 W/m² | - |
| 1778181960 | 15° C | 52% | 1012.9 hPa | 0 mm | - | 678 W/m² | - |
| 1778181657 | 14.44° C | 51% | 1012.9 hPa | 0 mm | - | 743 W/m² | - |
| 1778181353 | 14.44° C | 52% | 1013 hPa | 0 mm | - | 695 W/m² | - |
| 1778181050 | 14.44° C | 54% | 1012.8 hPa | 0 mm | - | 701 W/m² | - |
| 1778180747 | 15° C | 53% | 1013 hPa | 0 mm | - | 700 W/m² | - |
| 1778180446 | 14.44° C | 53% | 1012.9 hPa | 0 mm | - | 712 W/m² | - |
| 1778180144 | 15° C | 53% | 1012.9 hPa | 0 mm | - | 742 W/m² | - |
| 1778179840 | 14.44° C | 52% | 1013.1 hPa | 0 mm | - | 778 W/m² | - |
| 1778179539 | 14.44° C | 57% | 1013.1 hPa | 0 mm | - | 782 W/m² | - |
| 1778179236 | 14.44° C | 53% | 1012.9 hPa | 0 mm | - | 770 W/m² | - |
| 1778178932 | 14.44° C | 57% | 1013 hPa | 0 mm | - | 771 W/m² | - |
| 1778178629 | 13.89° C | 57% | 1013 hPa | 0 mm | - | 796 W/m² | - |
| 1778178325 | 13.89° C | 59% | 1013.2 hPa | 0 mm | - | 786 W/m² | - |
| 1778178021 | 14.44° C | 53% | 1013.1 hPa | 0 mm | - | 789 W/m² | - |
| 1778177718 | 14.44° C | 57% | 1013 hPa | 0 mm | - | 807 W/m² | - |
| 1778177415 | 13.89° C | 58% | 1013.3 hPa | 0 mm | - | 795 W/m² | - |
| 1778177111 | 13.89° C | 54% | 1013.3 hPa | 0 mm | - | 792 W/m² | - |
| 1778176808 | 13.89° C | 57% | 1013 hPa | 0 mm | - | 801 W/m² | - |
| 1778176504 | 13.89° C | 59% | 1013.1 hPa | 0 mm | - | 778 W/m² | - |
| 1778176202 | 13.89° C | 56% | 1013.4 hPa | 0 mm | - | 740 W/m² | - |
| 1778175899 | 13.89° C | 54% | 1013.5 hPa | 0 mm | - | 751 W/m² | - |
* Rain latest hour (hover to see other rain measurements)
** Current wind speed in m/s (hover to see current wind gust speed)